Weather History for Dayton, OH

Change the Weather History Date:

Friday, March 22, 2013

  Actual Average Record
Temperature  
Mean Temperature 31 °F 43 °F  
Max Temperature 42 °F 52 °F 84 °F (1907)
Min Temperature 19 °F 33 °F 14 °F (1951)
Degree Days  
Heating Degree Days 34 22  
Month to date heating degree days 673 579  
Since 1 July heating degree days 4723 4854  
Cooling Degree Days 0 0  
Month to date cooling degree days 0 0  
Year to date cooling degree days 0 0  
Moisture  
Dew Point 17 °F    
Average Humidity 61    
Maximum Humidity 84    
Minimum Humidity 38    
Precipitation  
Precipitation 0.00 in 0.12 in 1.85 in (1952)
Month to date precipitation 2.38 2.24  
Year to date precipitation 6.77 7.19  
Snow  
Snow 0.00 in 0.10 in 11.20 in (1968)
Month to date snowfall 5.9 2.8  
Since 1 July snowfall 27.6 22.1  
Snow Depth 0.00 in    
Sea Level Pressure  
Sea Level Pressure 30.05 in    
Wind  
Wind Speed 6 mph (West)    
Max Wind Speed 15 mph    
Max Gust Speed 20 mph    
Visibility 10 miles    
Events      
T = Trace of Precipitation, MM = Missing Value Source: NWS Daily Summary

Daily Weather History Graph

Daily Weather History Graph

Search for Another Location

Airport:

Trip Planner

Search our weather history database for the weather conditions in past years. The results will help you decide how hot, cold, wet, or windy it might be!

Date:

Astronomy

Mar. 22, 2013 Rise Set
Actual Time 7:36 AM EDT 7:51 PM EDT
Civil Twilight 7:09 AM EDT 8:18 PM EDT
Nautical Twilight 6:38 AM EDT 8:49 PM EDT
Astronomical Twilight 6:05 AM EDT 9:22 PM EDT
Moon 3:17 PM EDT (3/22) 4:36 AM EDT (3/22)
Length of Visible Light 13h 08m
Length of Day
12h 14m
Waxing Gibbous, 77% of the Moon is Illuminated
Mar 22
Waxing Gibbous
Mar 27
Full
Apr 3
Last Quarter
Apr 10
New
Apr 18
First Quarter

Hourly Weather History & Observations

Time (EDT) Temp. Windchill Dew Point Humidity Pressure Visibility Wind Dir Wind Speed Gust Speed Precip Events Conditions
12:56 AM 24.1 °F 14.4 °F 16.0 °F 71% 30.03 in 10.0 mi SW 9.2 mph - N/A   Clear
1:56 AM 21.0 °F 11.4 °F 15.1 °F 78% 30.04 in 10.0 mi WSW 8.1 mph - N/A   Clear
2:56 AM 21.0 °F 11.4 °F 15.1 °F 78% 30.04 in 10.0 mi West 8.1 mph - N/A   Clear
3:56 AM 21.9 °F 14.5 °F 15.1 °F 75% 30.04 in 10.0 mi West 5.8 mph - N/A   Clear
4:56 AM 21.9 °F 13.4 °F 15.1 °F 75% 30.04 in 10.0 mi NW 6.9 mph - N/A   Clear
5:56 AM 21.0 °F 14.6 °F 15.1 °F 78% 30.05 in 10.0 mi NNW 4.6 mph - N/A   Clear
6:56 AM 21.0 °F 16.2 °F 14.0 °F 74% 30.06 in 10.0 mi WNW 3.5 mph - N/A   Clear
7:56 AM 19.9 °F 12.1 °F 15.1 °F 81% 30.08 in 10.0 mi SW 5.8 mph - N/A   Clear
8:56 AM 25.0 °F 19.3 °F 18.0 °F 75% 30.08 in 10.0 mi WSW 4.6 mph - N/A   Partly Cloudy
9:56 AM 28.0 °F 24.2 °F 18.0 °F 66% 30.09 in 10.0 mi West 3.5 mph - N/A   Clear
10:56 AM 30.9 °F 25.2 °F 18.0 °F 59% 30.08 in 10.0 mi West 5.8 mph - N/A   Scattered Clouds
11:56 AM 33.1 °F 26.1 °F 19.0 °F 56% 30.08 in 10.0 mi SW 8.1 mph - N/A   Scattered Clouds
12:56 PM 36.0 °F 29.0 °F 18.0 °F 48% 30.08 in 10.0 mi WSW 9.2 mph - N/A   Scattered Clouds
1:56 PM 37.9 °F 32.7 °F 17.1 °F 43% 30.06 in 10.0 mi NW 6.9 mph - N/A   Scattered Clouds
2:56 PM 39.0 °F 33.4 °F 18.0 °F 43% 30.05 in 10.0 mi West 8.1 mph - N/A   Partly Cloudy
3:56 PM 41.0 °F 35.2 °F 18.0 °F 40% 30.02 in 10.0 mi SW 9.2 mph - N/A   Scattered Clouds
4:56 PM 41.0 °F 34.7 °F 17.1 °F 38% 30.02 in 10.0 mi West 10.4 mph 16.1 mph N/A   Scattered Clouds
5:56 PM 39.9 °F 33.4 °F 18.0 °F 41% 30.02 in 10.0 mi West 10.4 mph - N/A   Mostly Cloudy
6:56 PM 39.9 °F 33.9 °F 17.1 °F 40% 30.03 in 10.0 mi West 9.2 mph - N/A   Mostly Cloudy
7:56 PM 37.0 °F 31.6 °F 17.1 °F 44% 30.05 in 10.0 mi WNW 6.9 mph - N/A   Clear
8:56 PM 33.1 °F 30.0 °F 18.0 °F 54% 30.06 in 10.0 mi West 3.5 mph - N/A   Clear
9:56 PM 33.1 °F 30.0 °F 17.1 °F 52% 30.06 in 10.0 mi WNW 3.5 mph - N/A   Clear
10:56 PM 33.1 °F 30.0 °F 17.1 °F 52% 30.05 in 10.0 mi NW 3.5 mph - N/A   Clear
11:56 PM 30.2 °F - 17.6 °F 60% 30.03 in 10.0 mi Calm Calm - N/A   Clear